Weather History for Imperial, CA

Change the Weather History Date:

Tuesday, February 21, 2012

  Actual Average Record
Temperature  
Mean Temperature 58 °F -  
Max Temperature 73 °F 74 °F 91 °F (1977)
Min Temperature 42 °F 46 °F 30 °F (1953)
Degree Days  
Heating Degree Days 8    
Growing Degree Days 8 (Base 50)    
Moisture  
Dew Point 29 °F    
Average Humidity 41    
Maximum Humidity 71    
Minimum Humidity 13    
Precipitation  
Precipitation 0.00 in - - ()
Sea Level Pressure  
Sea Level Pressure 30.11 in    
Wind  
Wind Speed 5 mph (West)    
Max Wind Speed 9 mph    
Max Gust Speed -    
Visibility 10 miles    
Events      
Averages and records for this station are not official NWS values.
T = Trace of Precipitation, MM = Missing Value Source: NWS Daily Summary

Daily Weather History Graph

Daily Weather History Graph

Search for Another Location

Airport:

Trip Planner

Search our weather history database for the weather conditions in past years. The results will help you decide how hot, cold, wet, or windy it might be!

Date:

Astronomy

Feb. 21, 2012 Rise Set
Actual Time 6:19 AM PST 5:32 PM PST
Civil Twilight 5:54 AM PST 5:57 PM PST
Nautical Twilight 5:26 AM PST 6:26 PM PST
Astronomical Twilight 4:57 AM PST 6:55 PM PST
Moon 5:52 AM PST (2/21) 5:40 PM PST (2/21)
Length of Visible Light 12h 02m
Length of Day
11h 12m
Waning Crescent, 0% of the Moon is Illuminated
Feb 21
Waning Crescent
Feb 21
New
Feb 29
First Quarter
Mar 8
Full
Mar 14
Last Quarter

Hourly Weather History & Observations

Time (PST) Temp. Windchill Dew Point Humidity Pressure Visibility Wind Dir Wind Speed Gust Speed Precip Events Conditions
12:53 AM 46.9 °F - 37.9 °F 71% 30.06 in 10.0 mi WSW 3.5 mph - N/A   Clear
1:53 AM 48.0 °F - 34.0 °F 58% 30.05 in 10.0 mi WSW 5.8 mph - N/A   Clear
2:53 AM 44.1 °F 40.1 °F 35.1 °F 71% 30.05 in 10.0 mi West 6.9 mph - N/A   Clear
3:53 AM 43.0 °F 39.5 °F 34.0 °F 71% 30.07 in 10.0 mi West 5.8 mph - N/A   Clear
4:53 AM 44.1 °F 40.1 °F 34.0 °F 68% 30.09 in 10.0 mi West 6.9 mph - N/A   Clear
5:53 AM 43.0 °F 38.8 °F 33.1 °F 68% 30.10 in 10.0 mi WSW 6.9 mph - N/A   Clear
6:53 AM 42.1 °F 37.7 °F 33.1 °F 70% 30.14 in 10.0 mi West 6.9 mph - N/A   Clear
7:53 AM 50.0 °F - 39.0 °F 66% 30.16 in 10.0 mi West 3.5 mph - N/A   Clear
8:53 AM 61.0 °F - 37.0 °F 41% 30.16 in 10.0 mi West 3.5 mph - N/A   Clear
9:53 AM 66.9 °F - 30.0 °F 25% 30.17 in 10.0 mi Variable 3.5 mph - N/A   Clear
10:53 AM 69.1 °F - 26.1 °F 20% 30.16 in 10.0 mi Variable 4.6 mph - N/A   Clear
11:53 AM 71.1 °F - 21.9 °F 16% 30.14 in 10.0 mi North 8.1 mph - N/A   Clear
12:53 PM 72.0 °F - 21.0 °F 15% 30.12 in 10.0 mi Variable 4.6 mph - N/A   Clear
1:53 PM 73.4 °F - 21.2 °F 14% 30.11 in 10.0 mi North 6.9 mph - N/A   Clear
2:53 PM 73.9 °F - 19.0 °F 13% 30.09 in 10.0 mi North 5.8 mph - N/A   Clear
4:53 PM 71.1 °F - 26.1 °F 19% 30.08 in 10.0 mi NW 3.5 mph - N/A   Clear
5:53 PM 66.9 °F - 21.9 °F 18% 30.08 in 10.0 mi Calm Calm - N/A   Clear
6:53 PM 62.1 °F - 26.1 °F 25% 30.09 in 10.0 mi Calm Calm - N/A   Clear
7:53 PM 55.9 °F - 28.9 °F 36% 30.09 in 10.0 mi SW 5.8 mph - N/A   Clear
8:53 PM 54.0 °F - 28.0 °F 37% 30.11 in 10.0 mi WSW 5.8 mph - N/A   Clear
9:53 PM 52.0 °F - 27.0 °F 38% 30.12 in 10.0 mi WSW 5.8 mph - N/A   Clear
10:53 PM 50.0 °F - 28.0 °F 43% 30.12 in 10.0 mi West 6.9 mph - N/A   Clear
11:53 PM 53.1 °F - 23.0 °F 31% 30.12 in 10.0 mi WSW 9.2 mph - N/A   Clear